Flight Track Log - Related Links

Times and Time Zones

All times are in EDT time to prevent confusion due to time zone crossing. See the LXJ342 flight status page for this flight to view local times or setup timezone preferences in your user account.

Time Position Orientation Groundspeed Altitude Reporting Facility
EDT Latitude Longitude Course Direction KTS MPH feet Rate Location/Type
Thu 04:30:54 PM 29.4772 -98.4022 132° Southeast 228 262 5,500  Level Houston Center
Thu 04:32:08 PM 29.5069 -98.3319 64° Northeast 233 268 10,500 3,309 Climbing Houston Center
Thu 04:33:10 PM 29.5728 -98.2806 34° Northeast 281 323 13,000 1,872 Climbing Houston Center
Thu 04:34:13 PM 29.6683 -98.3000 350° North 356 410 14,400 1,920 Climbing Houston Center
Thu 04:35:15 PM 29.7778 -98.3228 350° North 371 427 17,000 2,371 Climbing Houston Center
Thu 04:36:17 PM 29.8861 -98.3139 North 389 448 19,300 2,661 Climbing Houston Center
Thu 04:37:19 PM 30.0025 -98.3053 North 388 447 22,500 2,855 Climbing Houston Center
Thu 04:38:21 PM 30.1106 -98.2964 North 387 445 25,200 2,419 Climbing Houston Center
Thu 04:39:23 PM 30.2294 -98.2869 North 396 456 27,500 1,645 Climbing Houston Center
Thu 04:40:25 PM 30.3325 -98.2781 North 412 474 28,600 1,016 Climbing Houston Center
Thu 04:41:27 PM 30.4597 -98.2681 North 445 512 29,600 1,056 Climbing Houston Center
Thu 04:42:30 PM 30.6117 -98.2567 North 460 529 30,800 1,056 Climbing Houston Center
Thu 04:43:32 PM 30.7408 -98.2461 North 458 527 31,800 968 Climbing Houston Center
Thu 04:44:34 PM 30.8667 -98.2364 North 450 518 32,800 581 Climbing Houston Center
Thu 04:45:36 PM 30.9925 -98.2264 North 447 514 33,000 48 Climbing Houston Center
Thu 04:46:38 PM 31.1144 -98.2161 North 438 504 32,900 -462 Descending Houston Center
Thu 04:47:20 PM 31.1897 -98.2367 347° North 424 488 32,200 -882 Descending Fort Worth Center
Thu 04:48:20 PM 31.3061 -98.3228 328° Northwest 429 494 31,400 -800 Descending Fort Worth Center
Thu 04:49:20 PM 31.4056 -98.4161 321° Northwest 437 503 30,600 -800 Descending Fort Worth Center
Thu 04:50:20 PM 31.5247 -98.3981 North 413 475 29,800 -1,150 Descending Fort Worth Center
Thu 04:51:20 PM 31.6256 -98.3161 35° Northeast 390 449 28,300 -1,700 Descending Fort Worth Center
Thu 04:52:20 PM 31.7219 -98.2364 35° Northeast 412 474 26,400 -1,900 Descending Fort Worth Center
Thu 04:53:20 PM 31.8186 -98.1592 34° Northeast 412 474 24,500 -1,850 Descending Fort Worth Center
Thu 04:54:20 PM 31.9150 -98.0792 35° Northeast 417 480 22,700 -1,850 Descending Fort Worth Center
Thu 04:55:20 PM 32.0053 -98.0039 35° Northeast 402 463 20,800 -1,650 Descending Fort Worth Center
Thu 04:56:20 PM 32.0869 -97.9381 34° Northeast 377 434 19,400 -1,450 Descending Fort Worth Center
Thu 04:57:20 PM 32.1603 -97.8722 37° Northeast 334 384 17,900 -1,400 Descending Fort Worth Center
Thu 04:58:20 PM 32.2253 -97.8014 43° Northeast 318 366 16,600 -1,400 Descending Fort Worth Center
Thu 04:59:20 PM 32.2861 -97.7281 46° Northeast 313 360 15,100 -1,400 Descending Fort Worth Center
Thu 05:00:20 PM 32.3447 -97.6592 45° Northeast 297 342 13,800 -1,300 Descending Fort Worth Center
Thu 05:01:20 PM 32.4031 -97.5881 46° Northeast 297 342 12,500 -1,250 Descending Fort Worth Center
Thu 05:02:20 PM 32.4597 -97.5192 46° Northeast 297 342 11,300 -750 Descending Fort Worth Center
Thu 05:03:20 PM 32.5181 -97.4503 45° Northeast 297 342 11,000 -150 Descending Fort Worth Center
Thu 05:04:20 PM 32.5767 -97.3789 46° Northeast 297 342 11,000  Level Fort Worth Center
Thu 05:05:20 PM 32.6328 -97.3072 47° Northeast 292 336 11,000  Level Fort Worth Center
Thu 05:06:20 PM 32.6831 -97.2506 43° Northeast 287 330 11,000  Level Fort Worth Center
Thu 05:07:20 PM 32.7372 -97.1836 46° Northeast 258 297 11,000 -350 Level Fort Worth Center
Thu 05:08:20 PM 32.7997 -97.1736 North 229 264 10,300 -1,350 Descending Fort Worth Center
Thu 05:09:20 PM 32.8708 -97.1758 358° North 237 273 8,300 -2,143 Descending Fort Worth Center
Thu 05:10:26 PM 32.9167 -97.1000 54° Northeast 235 270 5,800 -1,571 Descending Dallas / Fort Worth TRACON
Thu 05:11:26 PM 32.9333 -97.0333 73° East 192 221 5,000 -400 Descending Dallas / Fort Worth TRACON
Thu 05:12:26 PM 32.9667 -96.9667 59° Northeast 190 219 5,000 -700 Level Dallas / Fort Worth TRACON
Thu 05:13:26 PM 32.9667 -96.9167 90° East 195 224 3,600 -1,450 Descending Dallas / Fort Worth TRACON
Thu 05:14:26 PM 32.9167 -96.9167 180° South 160 184 2,100 -950 Descending Dallas / Fort Worth TRACON
Thu 05:15:26 PM 32.9000 -96.9000 140° Southeast 129 148 1,700 -600 Descending Dallas / Fort Worth TRACON
Thu 05:16:26 PM 32.8667 -96.8667 140° Southeast 127 146 900 -800 Descending Dallas / Fort Worth TRACON
Thu 05:18:00 PM 32.8471 -96.8518 118° Southeast  Level Estimated

Login

Don't have an account? Register now (free) for customized features, flight alerts, and more!